DLH717 RJTT-EDDF

Flight info

Callsign DLH717
Flight time N/A
Altitude 31000
Route INUBO Y808 PUTER/N0494F320 A590 PUGAL/N0484F330 A590 POWAL DCT OPAKE DCT MARCC DCT JUJXI/N0483F350 DCT 73N161W DCT NAMWE DCT 83N130W 84N120W/N0489F370 85N100W 85N080W DCT PELRI/M083F370 DCT 81N020W 78N010W 71N000W/N0488F370 DCT ABADA/N0479F390 DCT KOVIK DCT AMRAK DCT RIMET/N0486F310 T157 KOKEB/N0427F230 T157 KERAX KERAX5A
Aircraft A346/H-SDE2E3FGHIJ3J4J5M1RWXY/LB1D1

Departure

Time 2026-05-07 03:45
Airport Tokyo Haneda International Airport (RJTT)

Arrival

Time N/A
Airport Frankfurt Main Airport (EDDF)
Time Latitude Longitude Altitude Speed Heading
2026-05-07 03:27 35.54651 139.76979 31 ft 0 kts 240°
2026-05-07 03:32 35.54651 139.76980 31 ft 1 kts 240°
2026-05-07 03:33 35.54663 139.77005 30 ft 4 kts 239°
2026-05-07 03:33 35.54676 139.77033 30 ft 4 kts 240°
2026-05-07 03:33 35.54689 139.77059 30 ft 4 kts 246°
2026-05-07 03:33 35.54693 139.77081 28 ft 4 kts 282°
2026-05-07 03:34 35.54690 139.77090 28 ft 4 kts 330°
2026-05-07 03:34 35.54666 139.77101 27 ft 4 kts 341°
2026-05-07 03:34 35.54643 139.77113 29 ft 2 kts 330°
2026-05-07 03:34 35.54642 139.77113 28 ft 0 kts 330°
2026-05-07 03:35 35.54642 139.77114 28 ft 0 kts 330°
2026-05-07 03:36 35.54643 139.77113 29 ft 1 kts 330°
2026-05-07 03:36 35.54673 139.77098 28 ft 8 kts 346°
2026-05-07 03:36 35.54729 139.77110 31 ft 8 kts 33°
2026-05-07 03:37 35.54761 139.77159 32 ft 7 kts 58°
2026-05-07 03:37 35.54786 139.77212 32 ft 8 kts 60°
2026-05-07 03:37 35.54822 139.77282 31 ft 11 kts 50°
2026-05-07 03:37 35.54891 139.77309 32 ft 11 kts 334°
2026-05-07 03:38 35.54954 139.77266 33 ft 9 kts 331°
2026-05-07 03:38 35.54998 139.77235 37 ft 7 kts 329°
2026-05-07 03:38 35.55046 139.77200 36 ft 10 kts 329°
2026-05-07 03:38 35.55124 139.77144 32 ft 15 kts 329°
2026-05-07 03:39 35.55221 139.77075 32 ft 17 kts 330°
2026-05-07 03:39 35.55328 139.77000 29 ft 19 kts 330°
2026-05-07 03:39 35.55439 139.76922 32 ft 17 kts 337°
2026-05-07 03:39 35.55549 139.76952 31 ft 17 kts 32°
2026-05-07 03:40 35.55646 139.77034 31 ft 17 kts 36°
2026-05-07 03:40 35.55735 139.77113 34 ft 15 kts 35°
2026-05-07 03:40 35.55829 139.77194 31 ft 17 kts 35°
2026-05-07 03:40 35.55922 139.77287 33 ft 18 kts 52°
2026-05-07 03:41 35.55992 139.77427 31 ft 19 kts 60°
2026-05-07 03:41 35.56057 139.77566 31 ft 18 kts 60°
2026-05-07 03:41 35.56121 139.77701 32 ft 18 kts 59°
2026-05-07 03:41 35.56181 139.77826 33 ft 17 kts 59°
2026-05-07 03:42 35.56240 139.77949 33 ft 17 kts 60°
2026-05-07 03:42 35.56298 139.78073 33 ft 17 kts 60°
2026-05-07 03:42 35.56356 139.78195 33 ft 16 kts 60°
2026-05-07 03:42 35.56414 139.78317 33 ft 16 kts 60°
2026-05-07 03:43 35.56471 139.78438 34 ft 16 kts 59°
2026-05-07 03:43 35.56527 139.78556 34 ft 16 kts 60°
2026-05-07 03:43 35.56552 139.78668 38 ft 13 kts 116°
2026-05-07 03:43 35.56471 139.78739 38 ft 24 kts 149°
2026-05-07 03:44 35.56128 139.78982 35 ft 88 kts 150°
2026-05-07 03:44 35.55439 139.79471 35 ft 141 kts 150°
2026-05-07 03:44 35.54453 139.80178 57 ft 182 kts 149°
2026-05-07 03:44 35.53353 139.80974 579 ft 184 kts 150°
2026-05-07 03:45 35.52317 139.81940 1113 ft 190 kts 139°
2026-05-07 03:45 35.51390 139.83124 1720 ft 192 kts 134°
2026-05-07 03:45 35.50507 139.84351 2183 ft 195 kts 134°
2026-05-07 03:45 35.49556 139.85615 2445 ft 206 kts 137°
2026-05-07 03:46 35.48513 139.86900 2710 ft 218 kts 138°
2026-05-07 03:46 35.47379 139.88247 2870 ft 237 kts 139°
2026-05-07 03:46 35.46151 139.89749 2993 ft 260 kts 135°
2026-05-07 03:46 35.45172 139.91691 3221 ft 280 kts 105°
2026-05-07 03:47 35.45200 139.94133 3566 ft 295 kts 71°
2026-05-07 03:47 35.46300 139.96254 4122 ft 298 kts 46°
2026-05-07 03:47 35.47795 139.98041 4733 ft 300 kts 42°
2026-05-07 03:47 35.49563 139.99405 5191 ft 304 kts 13°
2026-05-07 03:48 35.51610 139.99510 5688 ft 299 kts 342°
2026-05-07 03:48 35.53591 139.98778 6301 ft 298 kts 338°
2026-05-07 03:48 35.55576 139.97962 6834 ft 302 kts 338°
2026-05-07 03:48 35.57601 139.97181 7375 ft 305 kts 339°
2026-05-07 03:49 35.59655 139.96453 7902 ft 309 kts 343°
2026-05-07 03:49 35.61082 139.96143 8252 ft 313 kts 351°
2026-05-07 03:49 35.63278 139.96083 8817 ft 318 kts 359°
2026-05-07 03:49 35.65507 139.96233 9365 ft 321 kts
2026-05-07 03:50 35.67781 139.96415 9896 ft 324 kts
2026-05-07 03:50 35.70058 139.96588 10319 ft 329 kts 360°
2026-05-07 03:50 35.72394 139.96671 10536 ft 339 kts 353°
2026-05-07 03:50 35.74765 139.96250 10740 ft 346 kts 341°
2026-05-07 03:51 35.77091 139.95304 10960 ft 354 kts 335°
2026-05-07 03:51 35.79422 139.94184 11180 ft 365 kts 334°
2026-05-07 03:51 35.81823 139.93013 11392 ft 377 kts 334°
2026-05-07 03:51 35.84306 139.91819 11627 ft 388 kts 335°
2026-05-07 03:52 35.86848 139.90615 12041 ft 392 kts 335°
2026-05-07 03:52 35.89375 139.89427 12556 ft 394 kts 335°
2026-05-07 03:52 35.91956 139.88214 13064 ft 397 kts 335°
2026-05-07 03:52 35.94550 139.86993 13530 ft 400 kts 335°
2026-05-07 03:53 35.97226 139.85933 13937 ft 409 kts 346°
2026-05-07 03:53 36.00097 139.85804 14326 ft 419 kts
2026-05-07 03:53 36.02944 139.86708 14772 ft 425 kts 18°
2026-05-07 03:53 36.05706 139.88029 15208 ft 427 kts 19°
2026-05-07 03:54 36.08474 139.89399 15575 ft 431 kts 19°
2026-05-07 03:54 36.11279 139.90760 15971 ft 433 kts 19°
2026-05-07 03:54 36.14101 139.92101 16381 ft 435 kts 19°
2026-05-07 03:54 36.16903 139.93534 16769 ft 439 kts 27°
2026-05-07 03:55 36.19292 139.95900 17082 ft 445 kts 50°
2026-05-07 03:55 36.20831 139.99204 17454 ft 444 kts 72°
2026-05-07 03:55 36.21511 140.02924 17899 ft 443 kts 81°
2026-05-07 03:55 36.22018 140.06659 18208 ft 446 kts 82°
2026-05-07 03:56 36.22560 140.10470 18460 ft 450 kts 81°
2026-05-07 03:56 36.23146 140.14308 18745 ft 453 kts 80°
2026-05-07 03:56 36.23756 140.18149 19063 ft 455 kts 80°
2026-05-07 03:56 36.24372 140.22008 19391 ft 457 kts 81°
2026-05-07 03:57 36.24535 140.25948 19618 ft 456 kts 100°
2026-05-07 03:57 36.23613 140.29666 19920 ft 449 kts 121°
2026-05-07 03:57 36.21790 140.32763 20229 ft 442 kts 140°
2026-05-07 03:57 36.19416 140.35151 20549 ft 440 kts 146°
2026-05-07 03:58 36.16968 140.37446 20825 ft 443 kts 146°
2026-05-07 03:58 36.14506 140.39768 21079 ft 446 kts 146°
2026-05-07 03:58 36.12041 140.42114 21376 ft 448 kts 146°
2026-05-07 03:58 36.09552 140.44499 21675 ft 450 kts 146°
2026-05-07 03:59 36.07060 140.46894 21990 ft 452 kts 146°
2026-05-07 03:59 36.04588 140.49276 22279 ft 454 kts 146°
2026-05-07 03:59 36.02031 140.51738 22568 ft 456 kts 146°
2026-05-07 03:59 35.99527 140.54150 22857 ft 458 kts 146°
2026-05-07 04:00 35.97003 140.56580 23146 ft 460 kts 146°
2026-05-07 04:00 35.94467 140.59021 23420 ft 462 kts 146°
2026-05-07 04:00 35.91848 140.61539 23677 ft 464 kts 146°
2026-05-07 04:00 35.89243 140.64041 23913 ft 466 kts 146°
2026-05-07 04:01 35.86653 140.66526 24147 ft 467 kts 146°
2026-05-07 04:01 35.84029 140.69041 24380 ft 469 kts 147°
2026-05-07 04:01 35.81427 140.71532 24623 ft 471 kts 147°
2026-05-07 04:01 35.78815 140.74031 24863 ft 472 kts 147°
2026-05-07 04:02 35.76212 140.76539 25096 ft 475 kts 144°
2026-05-07 04:02 35.73853 140.79433 25291 ft 484 kts 133°
2026-05-07 04:02 35.71936 140.82880 25512 ft 492 kts 122°
2026-05-07 04:02 35.70533 140.86746 25739 ft 497 kts 114°
2026-05-07 04:03 35.69365 140.90703 25991 ft 499 kts 112°
2026-05-07 04:03 35.68209 140.94753 26214 ft 501 kts 112°
2026-05-07 04:03 35.67047 140.98809 26427 ft 503 kts 112°
2026-05-07 04:03 35.65871 141.02877 26650 ft 504 kts 112°
2026-05-07 04:04 35.64682 141.06947 26872 ft 506 kts 113°
2026-05-07 04:04 35.63482 141.11026 27067 ft 508 kts 113°
2026-05-07 04:04 35.62271 141.15122 27277 ft 510 kts 113°
2026-05-07 04:04 35.61050 141.19238 27503 ft 511 kts 113°
2026-05-07 04:05 35.59826 141.23359 27707 ft 513 kts 113°
2026-05-07 04:05 35.58597 141.27487 27906 ft 515 kts 113°
2026-05-07 04:05 35.57362 141.31631 28109 ft 516 kts 113°
2026-05-07 04:05 35.56124 141.35778 28336 ft 517 kts 113°
2026-05-07 04:06 35.54884 141.39931 28632 ft 517 kts 113°
2026-05-07 04:06 35.53641 141.44083 28921 ft 517 kts 113°
2026-05-07 04:06 35.52400 141.48223 29192 ft 517 kts 113°
2026-05-07 04:06 35.51153 141.52377 29420 ft 518 kts 113°
2026-05-07 04:07 35.49904 141.56534 29606 ft 520 kts 114°
2026-05-07 04:07 35.48662 141.60656 29767 ft 522 kts 114°
2026-05-07 04:07 35.47380 141.64901 29961 ft 524 kts 114°
2026-05-07 04:07 35.46212 141.69154 30154 ft 527 kts 110°
2026-05-07 04:08 35.45293 141.73463 30319 ft 530 kts 105°
2026-05-07 04:08 35.44614 141.77984 30477 ft 534 kts 101°
2026-05-07 04:08 35.44217 141.82477 30623 ft 537 kts 96°
2026-05-07 04:08 35.44080 141.87087 30785 ft 540 kts 93°
2026-05-07 04:09 35.44052 141.91704 30955 ft 541 kts 92°
2026-05-07 04:09 35.44033 142.00982 31008 ft 544 kts 92°
2026-05-07 04:10 35.43980 142.10283 31013 ft 545 kts 93°
2026-05-07 04:10 35.43901 142.19594 31016 ft 545 kts 93°
2026-05-07 04:11 35.43810 142.28915 31018 ft 545 kts 93°
2026-05-07 04:11 35.43712 142.38184 31022 ft 546 kts 93°
2026-05-07 04:12 35.43607 142.47515 31022 ft 546 kts 93°
2026-05-07 04:12 35.43493 142.56865 31026 ft 547 kts 93°
2026-05-07 04:13 35.43372 142.66232 31029 ft 548 kts 93°
2026-05-07 04:13 35.43243 142.75599 31028 ft 548 kts 93°
2026-05-07 04:14 35.43106 142.84955 31030 ft 548 kts 94°
2026-05-07 04:14 35.42962 142.94325 31031 ft 548 kts 94°
2026-05-07 04:15 35.42812 143.03626 31035 ft 549 kts 94°
2026-05-07 04:15 35.42652 143.13013 31037 ft 549 kts 94°
2026-05-07 04:16 35.42691 143.22403 31023 ft 553 kts 84°
2026-05-07 04:16 35.43500 143.27030 31033 ft 555 kts 72°
2026-05-07 04:16 35.45016 143.31402 31038 ft 555 kts 59°
2026-05-07 04:16 35.47160 143.35310 31041 ft 551 kts 47°
2026-05-07 04:17 35.49853 143.38641 31043 ft 546 kts 35°
2026-05-07 04:17 35.56207 143.43585 31050 ft 538 kts 24°
2026-05-07 04:18 35.62744 143.48070 31045 ft 538 kts 25°
2026-05-07 04:18 35.69230 143.52662 31043 ft 538 kts 26°
2026-05-07 04:19 35.75658 143.57303 31045 ft 537 kts 26°
2026-05-07 04:19 35.82101 143.61971 31044 ft 537 kts 26°
2026-05-07 04:20 35.88537 143.66646 31041 ft 536 kts 26°
2026-05-07 04:20 35.94957 143.71319 31039 ft 535 kts 26°
2026-05-07 04:21 36.04505 143.78269 31027 ft 520 kts 27°
2026-05-07 04:21 36.10685 143.82798 31036 ft 517 kts 28°
2026-05-07 04:22 36.16908 143.87363 31038 ft 517 kts 28°
2026-05-07 04:22 36.23062 143.91881 31038 ft 516 kts 28°
2026-05-07 04:23 36.29243 143.96428 31038 ft 516 kts 28°
2026-05-07 04:23 36.35424 144.00986 31039 ft 516 kts 28°
2026-05-07 04:24 36.41606 144.05553 31038 ft 517 kts 28°
2026-05-07 04:24 36.47781 144.10124 31037 ft 516 kts 28°
2026-05-07 04:25 36.53963 144.14710 31036 ft 517 kts 27°
2026-05-07 04:25 36.60114 144.19281 31036 ft 517 kts 27°
2026-05-07 04:26 36.66305 144.23890 31037 ft 518 kts 27°
2026-05-07 04:26 36.72492 144.28505 31037 ft 518 kts 27°
2026-05-07 04:27 36.78688 144.33135 31036 ft 519 kts 27°
2026-05-07 04:27 36.84837 144.37743 31037 ft 519 kts 27°
2026-05-07 04:28 36.91032 144.42400 31032 ft 519 kts 27°
2026-05-07 04:28 36.97238 144.47074 31032 ft 519 kts 27°
2026-05-07 04:29 37.03445 144.51757 31034 ft 520 kts 27°
2026-05-07 04:29 37.09635 144.56438 31036 ft 520 kts 27°
2026-05-07 04:30 37.15786 144.61097 31036 ft 520 kts 27°
2026-05-07 04:30 37.21991 144.65806 31034 ft 520 kts 27°
2026-05-07 04:31 37.28196 144.70525 31040 ft 521 kts 27°
2026-05-07 04:31 37.34397 144.75249 31030 ft 521 kts 27°
2026-05-07 04:32 37.40571 144.79963 31041 ft 521 kts 27°
2026-05-07 04:32 37.46781 144.84713 31036 ft 521 kts 27°
2026-05-07 04:33 37.52982 144.89465 31038 ft 522 kts 27°
2026-05-07 04:33 37.59186 144.94229 31036 ft 522 kts 27°
2026-05-07 04:34 37.65397 144.99008 31041 ft 522 kts 27°
2026-05-07 04:34 37.70558 145.02988 31038 ft 522 kts 27°
2026-05-07 04:35 37.76763 145.07779 31042 ft 523 kts 27°
2026-05-07 04:35 37.82987 145.12596 31042 ft 523 kts 27°
2026-05-07 04:36 37.89173 145.17392 31041 ft 524 kts 27°
2026-05-07 04:36 37.95397 145.22227 31042 ft 524 kts 27°
2026-05-07 04:37 38.01623 145.27073 31043 ft 524 kts 27°
2026-05-07 04:37 38.07841 145.31923 31046 ft 525 kts 26°
2026-05-07 04:38 38.14070 145.36794 31047 ft 525 kts 26°
2026-05-07 04:38 38.20268 145.41648 31047 ft 525 kts 26°
2026-05-07 04:39 38.26490 145.46533 31044 ft 526 kts 26°
2026-05-07 04:39 38.32608 145.51696 31047 ft 529 kts 32°
2026-05-07 04:40 38.38307 145.57720 31046 ft 534 kts 38°
2026-05-07 04:40 38.43774 145.64168 31040 ft 535 kts 38°
2026-05-07 04:41 38.49221 145.70646 31043 ft 535 kts 38°
2026-05-07 04:41 38.54664 145.77107 31046 ft 535 kts 38°
2026-05-07 04:42 38.60126 145.83591 31047 ft 535 kts 38°
2026-05-07 04:42 38.65594 145.90090 31049 ft 536 kts 38°
2026-05-07 04:43 38.71054 145.96593 31051 ft 536 kts 38°
2026-05-07 04:43 38.76519 146.03117 31051 ft 537 kts 38°
2026-05-07 04:44 38.81990 146.09663 31053 ft 537 kts 38°
2026-05-07 04:44 38.87426 146.16179 31049 ft 538 kts 38°
2026-05-07 04:45 38.92893 146.22747 31049 ft 538 kts 38°
2026-05-07 04:45 38.98365 146.29337 31048 ft 538 kts 38°
2026-05-07 04:46 39.03835 146.35938 31046 ft 538 kts 38°
2026-05-07 04:46 39.09304 146.42554 31046 ft 539 kts 38°
2026-05-07 04:47 39.14776 146.49188 31050 ft 539 kts 38°
2026-05-07 04:47 39.20202 146.55780 31047 ft 539 kts 38°
2026-05-07 04:48 39.25669 146.62438 31051 ft 540 kts 38°
2026-05-07 04:48 39.31134 146.69109 31051 ft 540 kts 38°
2026-05-07 04:49 39.36598 146.75793 31049 ft 540 kts 38°
2026-05-07 04:49 39.42059 146.82488 31049 ft 541 kts 38°
2026-05-07 04:50 39.47488 146.89159 31053 ft 541 kts 38°
2026-05-07 04:50 39.52955 146.95892 31052 ft 541 kts 38°
2026-05-07 04:51 39.58413 147.02630 31048 ft 542 kts 38°
2026-05-07 04:51 39.63867 147.09378 31049 ft 542 kts 38°
2026-05-07 04:52 39.69329 147.16152 31048 ft 542 kts 38°
2026-05-07 04:52 39.74780 147.22927 31047 ft 542 kts 38°
2026-05-07 04:53 39.80232 147.29720 31047 ft 542 kts 38°
2026-05-07 04:53 39.85680 147.36523 31049 ft 542 kts 38°
2026-05-07 04:54 39.91126 147.43339 31050 ft 542 kts 38°
2026-05-07 04:54 39.96570 147.50168 31044 ft 542 kts 38°
2026-05-07 04:55 40.01975 147.56965 31047 ft 542 kts 38°
2026-05-07 04:55 40.07414 147.63820 31048 ft 542 kts 38°
2026-05-07 04:56 40.12847 147.70684 31045 ft 542 kts 38°
2026-05-07 04:56 40.18268 147.77548 31043 ft 542 kts 38°
2026-05-07 04:57 40.23686 147.84425 31042 ft 542 kts 38°
2026-05-07 04:57 40.29102 147.91315 31043 ft 542 kts 38°
2026-05-07 04:58 40.34472 147.98165 31048 ft 542 kts 38°
2026-05-07 04:58 40.39879 148.05076 31042 ft 542 kts 38°
2026-05-07 04:59 40.45283 148.11999 31045 ft 542 kts 38°
2026-05-07 04:59 40.50679 148.18930 31046 ft 542 kts 38°
2026-05-07 05:00 40.56042 148.25835 31043 ft 542 kts 38°
2026-05-07 05:00 40.61430 148.32788 31043 ft 542 kts 38°
2026-05-07 05:01 40.66815 148.39753 31038 ft 542 kts 38°
2026-05-07 05:01 40.72197 148.46733 31038 ft 542 kts 38°
2026-05-07 05:02 40.77583 148.53733 31039 ft 542 kts 38°
2026-05-07 05:02 40.82956 148.60734 31037 ft 542 kts 38°
2026-05-07 05:03 40.88294 148.67705 31036 ft 542 kts 38°
2026-05-07 05:03 40.93653 148.74722 31032 ft 542 kts 38°
2026-05-07 05:04 40.99010 148.81755 31033 ft 541 kts 39°
2026-05-07 05:04 41.04358 148.88792 31030 ft 541 kts 39°
2026-05-07 05:05 41.09707 148.95848 31033 ft 541 kts 39°
2026-05-07 05:05 41.15045 149.02905 31027 ft 541 kts 39°
2026-05-07 05:06 41.20370 149.09966 31025 ft 541 kts 39°
2026-05-07 05:06 41.25667 149.17006 31028 ft 540 kts 39°
2026-05-07 05:07 41.30981 149.24088 31031 ft 540 kts 39°
2026-05-07 05:07 41.36302 149.31198 31029 ft 540 kts 39°
2026-05-07 05:08 41.41569 149.38252 31023 ft 540 kts 39°
2026-05-07 05:08 41.46860 149.45357 31023 ft 539 kts 39°
2026-05-07 05:09 41.52145 149.52469 31024 ft 539 kts 39°
2026-05-07 05:09 41.57425 149.59593 31022 ft 539 kts 39°
2026-05-07 05:10 41.62702 149.66732 31021 ft 539 kts 39°
2026-05-07 05:10 41.67969 149.73873 31022 ft 538 kts 39°
2026-05-07 05:11 41.73197 149.80978 31023 ft 538 kts 39°
2026-05-07 05:11 41.78454 149.88141 31018 ft 538 kts 39°
2026-05-07 05:12 41.83704 149.95312 31017 ft 537 kts 39°
2026-05-07 05:12 41.88917 150.02452 31012 ft 537 kts 40°
2026-05-07 05:13 41.94150 150.09636 31015 ft 537 kts 40°
2026-05-07 05:13 41.99384 150.16839 31012 ft 537 kts 40°
2026-05-07 05:14 42.04601 150.24037 31014 ft 536 kts 40°
2026-05-07 05:14 42.09819 150.31255 31015 ft 536 kts 40°
2026-05-07 05:15 42.15022 150.38469 31016 ft 536 kts 40°
2026-05-07 05:15 42.20220 150.45695 31007 ft 536 kts 40°
2026-05-07 05:16 42.25378 150.52884 31009 ft 536 kts 40°
2026-05-07 05:16 42.30566 150.60132 31006 ft 536 kts 40°
2026-05-07 05:17 42.35749 150.67392 31002 ft 536 kts 40°
2026-05-07 05:17 42.40926 150.74662 31001 ft 536 kts 40°
2026-05-07 05:18 42.46097 150.81942 31005 ft 536 kts 40°
2026-05-07 05:18 42.51262 150.89231 31003 ft 536 kts 40°
2026-05-07 05:19 42.56420 150.96530 31003 ft 536 kts 40°
2026-05-07 05:19 42.61581 151.03852 31001 ft 536 kts 40°
2026-05-07 05:20 42.65872 151.09953 30997 ft 536 kts 40°
2026-05-07 05:20 42.71853 151.18480 30996 ft 536 kts 40°
2026-05-07 05:21 42.78740 151.28329 31000 ft 536 kts 40°
2026-05-07 05:22 42.83876 151.35696 30989 ft 536 kts 40°
2026-05-07 05:22 42.89016 151.43089 30990 ft 536 kts 40°
2026-05-07 05:23 42.94116 151.50443 30996 ft 536 kts 40°
2026-05-07 05:23 42.99243 151.57856 30992 ft 536 kts 40°
2026-05-07 05:24 43.04372 151.65289 30993 ft 536 kts 40°
2026-05-07 05:24 43.09492 151.72730 30986 ft 536 kts 40°
2026-05-07 05:25 43.14613 151.80192 30983 ft 537 kts 40°
2026-05-07 05:25 43.19689 151.87606 30984 ft 537 kts 40°
2026-05-07 05:26 43.24812 151.95109 30987 ft 537 kts 40°
2026-05-07 05:26 43.29920 152.02610 30980 ft 537 kts 40°
2026-05-07 05:27 43.35029 152.10134 30980 ft 537 kts 40°
2026-05-07 05:27 43.40133 152.17669 30978 ft 538 kts 40°
2026-05-07 05:28 43.45233 152.25217 30976 ft 538 kts 40°
2026-05-07 05:28 43.50293 152.32727 30975 ft 538 kts 40°
2026-05-07 05:29 43.55382 152.40301 30973 ft 538 kts 40°
2026-05-07 05:29 43.60473 152.47897 30972 ft 538 kts 40°
2026-05-07 05:30 43.65558 152.55505 30971 ft 538 kts 40°
2026-05-07 05:30 43.70642 152.63133 30972 ft 538 kts 40°
2026-05-07 05:31 43.75715 152.70762 30972 ft 538 kts 40°
2026-05-07 05:31 43.80748 152.78354 30972 ft 538 kts 41°
2026-05-07 05:32 43.85813 152.86015 30968 ft 538 kts 41°
2026-05-07 05:32 43.90873 152.93688 30970 ft 538 kts 41°
2026-05-07 05:33 43.95930 153.01376 30964 ft 538 kts 41°
2026-05-07 05:33 44.00977 153.09071 30966 ft 539 kts 41°
2026-05-07 05:34 44.06025 153.16790 30970 ft 539 kts 41°
2026-05-07 05:34 44.11031 153.24465 30964 ft 539 kts 41°
2026-05-07 05:35 44.16101 153.32259 30963 ft 539 kts 41°
2026-05-07 05:35 44.21106 153.39974 30969 ft 541 kts 41°
2026-05-07 05:35 44.23636 153.43881 31206 ft 541 kts 41°
2026-05-07 05:36 44.26148 153.47770 31587 ft 538 kts 41°
2026-05-07 05:36 44.28646 153.51644 31925 ft 536 kts 41°
2026-05-07 05:36 44.31143 153.55517 32173 ft 536 kts 41°
2026-05-07 05:36 44.33643 153.59399 32394 ft 537 kts 41°
2026-05-07 05:37 44.36153 153.63298 32611 ft 537 kts 41°
2026-05-07 05:37 44.38656 153.67192 32841 ft 537 kts 41°
2026-05-07 05:37 44.41152 153.71082 32951 ft 537 kts 41°
2026-05-07 05:38 44.46148 153.78886 32957 ft 537 kts 41°
2026-05-07 05:38 44.51106 153.86654 32956 ft 538 kts 41°
2026-05-07 05:39 44.56098 153.94499 32959 ft 538 kts 41°
2026-05-07 05:39 44.61082 154.02356 32953 ft 538 kts 41°
2026-05-07 05:40 44.66059 154.10222 32954 ft 538 kts 41°
2026-05-07 05:40 44.71029 154.18099 32954 ft 538 kts 41°
2026-05-07 05:41 44.76000 154.26002 32954 ft 538 kts 41°
2026-05-07 05:41 44.80938 154.33868 32953 ft 538 kts 41°
2026-05-07 05:42 44.85900 154.41793 32953 ft 539 kts 42°
2026-05-07 05:42 44.90814 154.49813 32952 ft 539 kts 43°
2026-05-07 05:43 44.95694 154.57869 32952 ft 539 kts 43°
2026-05-07 05:43 45.00569 154.65932 32952 ft 539 kts 43°
2026-05-07 05:44 45.05448 154.74016 32951 ft 539 kts 43°
2026-05-07 05:44 45.10316 154.82103 32947 ft 539 kts 43°
2026-05-07 05:45 45.15182 154.90209 32952 ft 539 kts 43°
2026-05-07 05:45 45.20010 154.98273 32948 ft 539 kts 43°
2026-05-07 05:46 45.24863 155.06405 32949 ft 539 kts 43°
2026-05-07 05:46 45.29721 155.14567 32949 ft 540 kts 43°
2026-05-07 05:47 45.34563 155.22728 32951 ft 540 kts 43°
2026-05-07 05:47 45.39409 155.30918 32939 ft 540 kts 43°
2026-05-07 05:48 45.44215 155.39065 32948 ft 540 kts 43°
2026-05-07 05:48 45.49047 155.47278 32946 ft 540 kts 43°
2026-05-07 05:49 45.53876 155.55513 32952 ft 540 kts 44°
2026-05-07 05:49 45.58696 155.63759 32948 ft 540 kts 44°
2026-05-07 05:50 45.63508 155.72020 32943 ft 541 kts 44°
2026-05-07 05:50 45.68296 155.80262 32948 ft 541 kts 44°
2026-05-07 05:51 45.73106 155.88561 32948 ft 541 kts 44°
2026-05-07 05:51 45.77907 155.96871 32951 ft 541 kts 44°
2026-05-07 05:52 45.82704 156.05195 32953 ft 541 kts 44°
2026-05-07 05:52 45.87466 156.13485 32953 ft 541 kts 44°
2026-05-07 05:53 45.92251 156.21838 32953 ft 541 kts 44°
2026-05-07 05:53 45.97035 156.30218 32951 ft 541 kts 44°
2026-05-07 05:54 46.01810 156.38610 32951 ft 541 kts 44°
2026-05-07 05:54 46.06574 156.47009 32953 ft 541 kts 44°
2026-05-07 05:55 46.11301 156.55364 32952 ft 541 kts 44°
2026-05-07 05:55 46.16053 156.63788 32954 ft 541 kts 44°
2026-05-07 05:56 46.20797 156.72220 32951 ft 541 kts 44°
2026-05-07 05:56 46.25537 156.80673 32950 ft 541 kts 44°
2026-05-07 05:57 46.30276 156.89149 32950 ft 541 kts 44°
2026-05-07 05:57 46.35001 156.97626 32956 ft 541 kts 44°
2026-05-07 05:58 46.39725 157.06127 32955 ft 541 kts 44°
2026-05-07 05:58 46.44445 157.14647 32953 ft 541 kts 44°
2026-05-07 05:59 46.49152 157.23171 32953 ft 541 kts 44°
2026-05-07 05:59 46.53856 157.31715 32952 ft 541 kts 44°
2026-05-07 06:00 46.58530 157.40233 32939 ft 541 kts 44°
2026-05-07 06:00 46.63231 157.48827 32962 ft 541 kts 44°
2026-05-07 06:01 46.67914 157.57417 32963 ft 541 kts 44°
2026-05-07 06:01 46.72598 157.66032 32964 ft 541 kts 44°
2026-05-07 06:02 46.77276 157.74663 32960 ft 542 kts 44°
2026-05-07 06:02 46.81921 157.83257 32967 ft 542 kts 44°
2026-05-07 06:03 46.86582 157.91908 32976 ft 542 kts 44°
2026-05-07 06:03 46.91243 158.00587 32964 ft 542 kts 44°
2026-05-07 06:04 46.92788 158.03469 32964 ft 542 kts 44°
2026-05-07 06:05 47.09683 158.35191 32972 ft 542 kts 45°
2026-05-07 06:06 47.14326 158.43974 32972 ft 543 kts 45°
2026-05-07 06:06 47.18956 158.52760 32974 ft 543 kts 45°
2026-05-07 06:07 47.23578 158.61558 32968 ft 543 kts 45°
2026-05-07 06:07 47.28202 158.70390 32968 ft 544 kts 45°
2026-05-07 06:08 47.32814 158.79227 32970 ft 544 kts 44°
2026-05-07 06:08 47.37407 158.88054 32973 ft 544 kts 44°
2026-05-07 06:09 47.42011 158.96931 32975 ft 544 kts 44°
2026-05-07 06:09 47.46623 159.05854 32967 ft 545 kts 44°
2026-05-07 06:10 47.51221 159.14778 32966 ft 545 kts 44°
2026-05-07 06:10 47.55818 159.23729 32966 ft 545 kts 44°
2026-05-07 06:11 47.60386 159.32653 32971 ft 545 kts 45°
2026-05-07 06:11 47.64975 159.41648 32971 ft 546 kts 44°
2026-05-07 06:12 47.69554 159.50653 32970 ft 546 kts 44°
2026-05-07 06:12 47.74134 159.59689 32973 ft 546 kts 44°
2026-05-07 06:13 47.78705 159.68736 32968 ft 547 kts 45°
2026-05-07 06:13 47.83245 159.77753 32970 ft 547 kts 45°
2026-05-07 06:14 47.87805 159.86841 32967 ft 547 kts 45°
2026-05-07 06:14 47.92366 159.95961 32961 ft 547 kts 45°
2026-05-07 06:15 47.96917 160.05091 32966 ft 548 kts 45°
2026-05-07 06:15 48.01461 160.14237 32966 ft 548 kts 45°
2026-05-07 06:16 48.06006 160.23417 32963 ft 548 kts 45°
2026-05-07 06:16 48.09775 160.31052 32957 ft 548 kts 44°
2026-05-07 06:17 48.14305 160.40259 32951 ft 549 kts 45°
2026-05-07 06:17 48.19561 160.50979 32945 ft 549 kts 45°
2026-05-07 06:18 48.23349 160.58735 32950 ft 549 kts 45°
2026-05-07 06:18 48.27867 160.68017 32950 ft 550 kts 45°
2026-05-07 06:19 48.32254 160.77379 32955 ft 552 kts 46°
2026-05-07 06:19 48.36624 160.86923 32948 ft 553 kts 46°
2026-05-07 06:20 48.40996 160.96484 32947 ft 553 kts 46°
2026-05-07 06:20 48.45362 161.06038 32937 ft 554 kts 46°
2026-05-07 06:21 48.49732 161.15625 32952 ft 554 kts 46°
2026-05-07 06:21 48.54068 161.25171 32945 ft 554 kts 46°
2026-05-07 06:22 48.58426 161.34800 32930 ft 555 kts 46°
2026-05-07 06:22 48.64960 161.49302 32931 ft 555 kts 46°
2026-05-07 06:23 48.69306 161.58990 32928 ft 555 kts 46°
2026-05-07 06:23 48.73636 161.68679 32927 ft 556 kts 46°
2026-05-07 06:24 48.77973 161.78415 32924 ft 556 kts 46°
2026-05-07 06:24 48.82272 161.88104 32924 ft 556 kts 46°
2026-05-07 06:25 48.86584 161.97856 32924 ft 556 kts 46°
2026-05-07 06:25 48.90897 162.07648 32919 ft 556 kts 46°
2026-05-07 06:26 48.95195 162.17440 32916 ft 556 kts 46°
2026-05-07 06:26 48.99482 162.27241 32913 ft 556 kts 46°
2026-05-07 06:27 49.03771 162.37085 32911 ft 556 kts 46°
2026-05-07 06:27 49.08023 162.46881 32910 ft 555 kts 46°
2026-05-07 06:28 49.12283 162.56730 32903 ft 555 kts 46°
2026-05-07 06:28 49.16533 162.66593 32903 ft 555 kts 46°
2026-05-07 06:29 49.20766 162.76450 32900 ft 554 kts 46°
2026-05-07 06:29 49.24991 162.86326 32893 ft 554 kts 46°
2026-05-07 06:30 49.29187 162.96170 32898 ft 553 kts 46°
2026-05-07 06:30 49.33394 163.06077 32892 ft 553 kts 46°
2026-05-07 06:31 49.37594 163.16005 32888 ft 553 kts 46°
2026-05-07 06:31 49.41773 163.25919 32884 ft 552 kts 47°
2026-05-07 06:32 49.45945 163.35855 32880 ft 552 kts 47°
2026-05-07 06:32 49.50068 163.45712 32883 ft 551 kts 47°
2026-05-07 06:33 49.54212 163.55654 32872 ft 550 kts 47°
2026-05-07 06:33 49.58340 163.65596 32869 ft 550 kts 47°
2026-05-07 06:34 49.62456 163.75546 32862 ft 549 kts 47°
2026-05-07 06:34 49.66556 163.85496 32866 ft 548 kts 47°
2026-05-07 06:35 49.70621 163.95398 32868 ft 547 kts 47°
2026-05-07 06:35 49.74694 164.05354 32862 ft 547 kts 47°
2026-05-07 06:36 49.78752 164.15315 32862 ft 546 kts 48°
2026-05-07 06:36 49.82793 164.25269 32863 ft 545 kts 48°
2026-05-07 06:37 49.86829 164.35247 32855 ft 545 kts 48°
2026-05-07 06:37 49.90821 164.45155 32852 ft 545 kts 48°
2026-05-07 06:38 49.94846 164.55183 32849 ft 545 kts 49°
2026-05-07 06:38 49.98855 164.65213 32853 ft 545 kts 49°
2026-05-07 06:39 50.02859 164.75267 32841 ft 546 kts 49°
2026-05-07 06:39 50.06858 164.85346 32838 ft 546 kts 49°
2026-05-07 06:40 50.10822 164.95385 32837 ft 547 kts 50°
2026-05-07 06:40 50.14823 165.05495 32829 ft 546 kts 48°
2026-05-07 06:41 50.19246 165.15017 32836 ft 536 kts 41°
2026-05-07 06:41 50.24191 165.23610 32827 ft 529 kts 37°
2026-05-07 06:42 50.29264 165.31946 32822 ft 528 kts 37°
2026-05-07 06:42 50.34292 165.40261 32820 ft 527 kts 37°
2026-05-07 06:43 50.39316 165.48639 32816 ft 527 kts 38°
2026-05-07 06:43 50.44326 165.57039 32811 ft 526 kts 38°
2026-05-07 06:44 50.49320 165.65442 32804 ft 525 kts 38°
2026-05-07 06:44 50.54303 165.73853 32802 ft 525 kts 39°
2026-05-07 06:45 50.59268 165.82264 32801 ft 524 kts 39°
2026-05-07 06:45 50.64223 165.90686 32791 ft 523 kts 39°
2026-05-07 06:46 50.69170 165.99121 32790 ft 523 kts 39°
2026-05-07 06:46 50.74077 166.07518 32779 ft 522 kts 40°
2026-05-07 06:47 50.79009 166.15986 32780 ft 522 kts 40°
2026-05-07 06:47 50.83927 166.24459 32775 ft 522 kts 40°
2026-05-07 06:48 50.88829 166.32932 32776 ft 521 kts 40°
2026-05-07 06:48 50.93725 166.41420 32770 ft 521 kts 41°
2026-05-07 06:49 50.98613 166.49926 32765 ft 520 kts 41°
2026-05-07 06:49 51.03482 166.58427 32762 ft 519 kts 41°
2026-05-07 06:50 51.08310 166.66887 32761 ft 519 kts 42°
2026-05-07 06:50 51.13164 166.75420 32754 ft 518 kts 42°
2026-05-07 06:51 51.17997 166.83942 32754 ft 518 kts 42°
2026-05-07 06:51 51.22824 166.92484 32750 ft 517 kts 43°
2026-05-07 06:52 51.27642 167.01038 32747 ft 517 kts 43°
2026-05-07 06:52 51.32445 167.09598 32740 ft 516 kts 43°
2026-05-07 06:53 51.37208 167.18113 32738 ft 516 kts 43°
2026-05-07 06:53 51.41992 167.26695 32736 ft 515 kts 43°
2026-05-07 06:54 51.46761 167.35279 32736 ft 515 kts 44°
2026-05-07 06:54 51.51523 167.43878 32725 ft 514 kts 44°
2026-05-07 06:55 51.56274 167.52488 32725 ft 514 kts 44°
2026-05-07 06:55 51.61010 167.61102 32733 ft 513 kts 44°
2026-05-07 06:56 51.65740 167.69732 32720 ft 513 kts 44°
2026-05-07 06:56 51.70465 167.78383 32719 ft 512 kts 44°
2026-05-07 06:57 51.75169 167.87026 32717 ft 512 kts 45°
2026-05-07 06:57 51.79835 167.95627 32710 ft 511 kts 45°
2026-05-07 06:58 51.84531 168.04315 32707 ft 511 kts 45°
2026-05-07 06:58 51.89209 168.12995 32709 ft 511 kts 45°
2026-05-07 06:59 51.93857 168.21652 32703 ft 510 kts 45°
2026-05-07 06:59 51.98515 168.30358 32704 ft 510 kts 45°
2026-05-07 07:00 52.03168 168.39087 32702 ft 510 kts 46°
2026-05-07 07:00 52.07808 168.47818 32701 ft 509 kts 46°
2026-05-07 07:01 52.12408 168.56505 32699 ft 509 kts 46°
2026-05-07 07:01 52.17031 168.65266 32701 ft 509 kts 46°